{"data":{"norad_id":51803,"intl_designator":"2022-017AM","name":"STARLINK-3544","alt_names":[],"object_type":"PAYLOAD","status":"ACTIVE","operator":null,"country":"US","launch_date":"2022-02-25","launch_site_code":"AFWTR","launch_vehicle":null,"mission":null,"orbit_class":"UNKNOWN","rcs_meters":null,"size_class":null,"mass_kg":null,"dimensions":null,"purposes":["comms"],"wikipedia_slug":null,"has_3d_model":false,"image_url":null,"decayed_at":null,"tle_current":{"epoch":"2026-09-19T06:36:12.686976Z","epoch_age_seconds":158089,"freshness":"FRESH","line1":"1 51803U 22017AM  26262.27514684  .00000268  00000+0  19078-4 0  9998","line2":"2 51803  53.1613 183.7866 0001481  86.5006 273.6166 15.34390622253361","mean_motion":15.34390622,"eccentricity":0.0001481,"inclination_deg":53.1613,"raan_deg":183.7866,"arg_perigee_deg":86.5006,"mean_anomaly_deg":273.6166,"bstar":1.9078e-5,"rev_number":25336,"period_min":93.848331666876,"perigee_km":461.71798117375,"apogee_km":463.74424630904,"semimajor_km":6840.8681137414,"source":"CELESTRAK","updated_at":"2026-09-20T09:00:39.941947Z"}}}